Location: Newark
(32.8014°N, 52.8711°E)
Time: 13:38:20
(UTC+00:00)

Envisat - Pass Details

Date: 25 January 2020
Orbit: 764 x 766 km, 98.1° (Epoch: 24 February)

Event Time Altitude Azimuth Distance (km) Brightness Sun altitude
Rises 02:53:57 0° 15° (NNE) 3,235 6.2 -7.5°
Reaches altitude 10° 02:56:17 10° 18° (NNE) 2,305 5.5 -7.1°
Maximum altitude 03:01:20 68° 101° (E) 819 3.5 -6.1°
Drops below altitude 10° 03:06:22 10° 185° (S) 2,290 5.7 -5.1°
Sets 03:08:40 0° 187° (S) 3,213 6.4 -4.6°
